sat.trackr.live / text

‹ back to catalog

STARLINK-35199

NORAD 65858 · 2025-223E

PAYLOAD ACTIVE UNKNOWN

§ Identity

Operator
Country
US
Launch date
2025-10-03
Launch site
AFWTR
Launch vehicle
Mass (kg)
RCS (m²)

Purposes: comms

External: N2YO · Heavens-Above · Gunter

§ Orbital elements

Epoch: 2026-09-20T22:15:06.884928Z

Period
93.85 min
Inclination
53.1566°
Eccentricity
0.0001198
Mean motion
15.34380300 rev/d
Perigee alt
461.9 km
Apogee alt
463.6 km
Semi-major
6,840.9 km
B*
3.8523e-4
RAAN
105.4576°
Arg perigee
77.6520°
Mean anomaly
282.4617°
Rev number
5,412

§ Raw data

STARLINK-351991 65858U 25223E   26263.92716302  .00012653  00000+0  38523-3 0  99952 65858  53.1566 105.4576 0001198  77.6520 282.4617 15.34380300 54123

JSON: /api/v1/satellites/65858 · /tle

For live sub-satellite position, see the globe view (requires WebGL).

§ Visibility from observer

Set your observer location to see the next 7 days of passes ≥ 10°. The values pass through the URL so the page stays shareable.

No JS? Fill the form by hand. The geolocation button needs JavaScript.